{"data":{"norad_id":52500,"intl_designator":"2022-049BB","name":"STARLINK-3866","alt_names":[],"object_type":"PAYLOAD","status":"ACTIVE","operator":null,"country":"US","launch_date":"2022-05-06","launch_site_code":"AFETR","launch_vehicle":null,"mission":null,"orbit_class":"UNKNOWN","rcs_meters":null,"size_class":null,"mass_kg":null,"dimensions":null,"purposes":["comms"],"wikipedia_slug":null,"has_3d_model":false,"image_url":null,"decayed_at":null,"tle_current":{"epoch":"2026-09-19T15:11:49.807968Z","epoch_age_seconds":138248,"freshness":"FRESH","line1":"1 52500U 22049BB  26262.63321537  .00015892  00000+0  84206-3 0  9994","line2":"2 52500  53.1596 246.0106 0003575  60.2678 299.8672 15.15560726241830","mean_motion":15.15560726,"eccentricity":0.0003575,"inclination_deg":53.1596,"raan_deg":246.0106,"arg_perigee_deg":60.2678,"mean_anomaly_deg":299.8672,"bstar":0.00084206,"rev_number":24183,"period_min":95.014338607241,"perigee_km":516.81094332818,"apogee_km":521.74259417283,"semimajor_km":6897.4137687505,"source":"CELESTRAK","updated_at":"2026-09-20T09:00:40.057052Z"}}}